Regional Weather Roundup
Issued by NWS

Home | Current Version | Previous Version | Graphics & Text | Print | Product List | Glossary On
Versions: 1 2 3 4 5 6 7 8 9 10 11 12 13 14 15 16 17 18 19 20 21 22 23 24 25 26 27 28 29 30 31 32 33 34 35 36 37 38 39 40 41 42 43 44 45 46 47 48
000
ASUS45 KBOU 200810
RWRCO

WEATHER ROUNDUP FOR COLORADO
NATIONAL WEATHER SERVICE PUEBLO CO
200 AM MDT FRI APR 20 2018

NOTE: "FAIR" INDICATES FEW OR NO CLOUDS BELOW 12000 FEET WITH NO
SIGNIFICANT WEATHER AND/OR OBSTRUCTIONS TO VISIBILITY.

COZ001>005-013-030-031-200900-
...NORTHWEST COLORADO...

CITY           SKY/WX    TMP DP  RH WIND       PRES   REMARKS
CRAIG          CLOUDY    48  34  58 S5        29.83F
HAYDEN         CLOUDY    47  31  53 E14       29.85F
MEEKER         CLOUDY    47  36  65 NE10G17   29.82F
RABBIT EARS PA NOT AVBL
STEAMBOAT SPGS FAIR      44  28  53 CALM      29.86S
WALDEN         FAIR      39  18  41 CALM      29.92F
$$

COZ006>008-011-200900-
...WEST CENTRAL VALLEYS...

CITY           SKY/WX    TMP DP  RH WIND       PRES   REMARKS
GRAND JUNCTION CLOUDY    59  27  29 S18G32    29.74R
MONTROSE       CLOUDY    46  33  60 SE10      29.86R
EAGLE          CLOUDY    53  27  36 N5        29.86F
RIFLE          CLOUDY    57  32  38 E3        29.77S
DELTA          NOT AVBL
NUCLA          CLOUDY    52   5  15 S12       29.87R
$$

COZ017>023-064>068-200900-
...SOUTHWEST COLORADO...

CITY           SKY/WX    TMP DP  RH WIND       PRES   REMARKS
DURANGO        CLOUDY    49  11  21 W16       29.86R
CORTEZ         CLOUDY    48   9  20 SW12      29.86R
PAGOSA SPRINGS DRIZZLE   50  22  33 S26G39    29.88F
TELLURIDE      CLOUDY    37  23  57 NW3       29.92R
WOLF CREEK PAS CLOUDY    32  21  64 S30G52    30.00F WCI  18
$$

COZ009-010-012-014-032>034-037-058>063-200900-
...CENTRAL COLORADO...

CITY           SKY/WX    TMP DP  RH WIND       PRES   REMARKS
ASPEN          CLOUDY    42  34  73 SE6       29.89F
BUENA VISTA    CLOUDY    45  26  47 S8G24     29.96R
COPPER MTN     NOT AVBL
BERTHOUD PASS  FAIR      27  16  63 S39G51    30.09F WCI   8
COTTONWOOD PAS LGT SNOW  37  34  87 SE17G25   30.02S VSB 1
GUNNISON       LGT RAIN  40  33  76 E17G28    29.92F
KREMMLING      CLOUDY    50  21  32 CALM      29.89F
LEADVILLE      LGT SNOW  32  27  81 S13G23    30.00F WCI  22
MONARCH PASS   SNOW      27  25  93 S18G31    30.17F VSB 1/2 WCI  13
SALIDA         CLOUDY    49  25  39 SE20G29   30.02F
SUNLIGHT       LGT SNOW  32  28  86 E8G23     29.99F WCI  25
WILKERSON PASS MOCLDY    32  14  47 SW9       30.10F WCI  24
$$

COZ069>075-200900-
...SAN LUIS VALLEY/SANGRE DE CRISTO MOUNTAINS...

CITY           SKY/WX    TMP DP  RH WIND       PRES   REMARKS
ALAMOSA        PTCLDY    44  22  41 S14       29.93F
DEL NORTE      FAIR      44  22  43 SE9G18    29.92F
LA VETA PASS   CLEAR     43  21  42 S24G41    30.14F
SAGUACHE       NOT AVBL
$$

COZ035-036-038>040-200900-
...NORTHERN COLORADO FRONT RANGE...

CITY           SKY/WX    TMP DP  RH WIND       PRES   REMARKS
DENVER INTL AP PTCLDY    46  21  37 S21G30    29.91F
DMNS CITY PARK NOT AVBL
AURORA         MOCLDY    48  22  35 S17G23    29.90F
FRONT RANGE AP FAIR      46  21  36 SE25G33   29.92F
ERIE MUNI ARPT FAIR      42  23  47 NW5       29.97S
BOULDER MUN AP FAIR      45  23  42 N13       29.91F
CENTENNIAL     MOCLDY    47  23  38 S23G35    29.90F
BROOMFIELD     PTCLDY    45  23  42 NW15      29.92F
LOVELAND       MOCLDY    41  26  55 N10       29.95F
LONGMONT       FAIR      46  25  44 N17       29.94F
$$

COZ041-046-047-076>085-087-088-200900-
...PIKES PEAK/PALMER DIVIDE AND SOUTHERN FOOTHILLS...

CITY           SKY/WX    TMP DP  RH WIND       PRES   REMARKS
COLO. SPRINGS  MOCLDY    45  23  42 SE13      29.98F
A. F. ACADEMY  PTCLDY    44  21  39 SE8       29.98F
SCHRIEVER AFB  NOT AVBL
CHEYENNE MTN   NOT AVBL
ELLICOTT         N/A    N/A N/A N/A SE16G33   29.97F
FALCON         FAIR      40  19  42 SE10      30.02F
FORT CARSON    PTCLDY    48  22  36 S3        29.95F
LIMON          PTCLDY    41  23  48 SE28G38   30.02F
MONUMENT HILL  CLEAR     37  21  52 SE20G25   29.97F
CANON CITY     FAIR      54  27  35 NE14      29.89F
WALSENBURG     FAIR      54  25  32 S24G35    29.91F
TRINIDAD       PTCLDY    53  20  27 S25G45    29.98F
$$

COZ042>045-048>051-090-091-200900-
...NORTHEAST COLORADO...

CITY           SKY/WX    TMP DP  RH WIND       PRES   REMARKS
GREELEY ARPT   MOCLDY    43  24  47 E15       29.95
AKRON          MOCLDY    39  26  59 SE23G35   30.03F
BURLINGTON     MOCLDY    40  26  57 SE26G39   30.11F
WRAY           FAIR      43  27  52 SE21G31   30.12F
YUMA           NOT AVBL
STERLING       NOT AVBL
HOLYOKE        FAIR      43  28  56 SE22      30.14F
FORT MORGAN    FAIR      42  23  45 E18       30.00F
$$

COZ086-089-092>099-200900-
...SOUTHEAST COLORADO...

CITY           SKY/WX    TMP DP  RH WIND       PRES   REMARKS
PUEBLO         MOCLDY    58  26  29 SE22G32   29.91F
LA JUNTA       CLOUDY    55  22  27 SE22G32   30.02F
LAMAR          CLOUDY    49  25  39 SE20G29   30.08F
SPRINGFIELD      N/A     46  25  43 S32G45    30.08F
$$





USA.gov is the U.S. government's official web portal to all federal, state and local government web resources and services.